COSMOS 991

Satellite information

Favourite Embed

Satellite Type and Status

PAYLOADIN ORBIT

Key statistics

Satellite COSMOS 991 at a glance.

Uptime

17407

Days in orbit

Revolutions

≈ 13.8

Per day

Orbit

LEO

Low Earth Orbit

Inclination

83.0

Latest

Satellite identification and parameters

Extended collection of information and parameters for COSMOS 991.

Object identification

Identified? True

Debris? False

Object name: COSMOS 991

International designator: 1978-022A

Object number (NORAD): 10692

Object ID (CCSDS): 10692

Country: COMMONWEALTH OF INDEPENDENT STATES (CIS)

Current information (Y/N): Y

RCS size: LARGE

Orbital parameters

Period: 104.61 minutes

Inclination: 82.9886 deg

SMA: 7354.301 km

Apoapsis: 1002.358 km

Periapsis: 949.975 km

RAAN: 59.6259 deg

Eccentricy: 0.00356137

Argument of periapsis: 223.1284 deg

Mean anomaly: 255.5416 deg

Mean motion: 13.76545672 rev/day

Mean motion (dot): 0.000001 rev/day2

B* drag term: 0.000086693934 1/REarth

Two-line elements (TLE)

Creation date: Oct. 26, 2025, 2:54 a.m.

Reference frame: TEME

Reference center: EARTH

Epoch: Oct. 25, 2025, 8:10 p.m. UTC

TLE line 0: 0 COSMOS 991

TLE line 1: 1 10692U 78022A 25298.84062001 .00000100 00000-0 86694-4 0 9992

TLE line 2: 2 10692 82.9886 59.6259 0035614 223.1284 255.5416 13.76545672393131

Live tracking on map

Real-time ground track for satellite COSMOS 991.

In-orbit conjunctions

A list of the most updated potential collisions computed for object COSMOS 991.

Target Orbit TCA Probability of collision Miss distance Type
FENGYUN 1C DEB SSO 2024-09-10 21:46:34 0.0001501768 418.0 (m) DEBRIS
THORAD AGENA D DEB SSO 2024-07-04 06:06:26 0.0001472936 434.0 (m) DEBRIS

Associated space launch

Navigation satellite providing location information for the Tsiklon-B navigation system

COSMOS 991 was lifted into orbit during the mission ‘Kosmos-3M | Parus 13’, on board a Kosmos-3M space rocket.

The launch took place on Feb. 28, 1978, 6:43 a.m. from 132/2.

For more information about the launch, click the button.

Launch to space Kosmos-3M | Parus 13
Kosmos-3M | Parus 13

Agency: N/A

Status: Launch Successful

Launch date: Feb. 28, 1978, 6:43 a.m. UTC

Rocket: Kosmos-3M

Launch pad: 132/2

Location: Plesetsk Cosmodrome, Russian Federation

...

Latest news about this satellite

There are no fresh news available about this satellite. Check back as we update our databases every day.


Newsletter sign-up

Weekly statistics, charts and insights to help you stay on top of the space industry.